FW1946 Weather Reports


Display with metric or nautical units.
time (UTC)temp
F
wind
direction
speed
MPH
gust
MPH
rain 1hr
in
rain 24hr
in
rain mn
in
humidity
%
barometer
mb
20260902033034 64 279 1.0 8.0 0.00 0.00 0.00 66 1010.8
20260902030040 64 257 2.0 12.0 0.00 0.00 0.00 67 1010.9
20260902024531 64 262 2.0 9.0 0.00 0.00 0.00 65 1010.8
20260902023030 65 249 2.0 8.0 0.00 0.00 0.00 64 1010.6
20260902021532 65 267 2.0 11.0 0.00 0.00 0.00 63 1010.5
20260902020030 66 265 2.0 11.0 0.00 0.00 0.00 61 1010.4
20260902013032 68 260 2.0 15.0 0.00 0.00 0.00 58 1010.3
20260902011530 69 255 3.0 10.0 0.00 0.00 0.00 57 1010.2
20260902010045 0 0 0.0 0.0 0.00 0.00 0.00 100
20260902004533 68 252 2.0 9.0 0.00 0.00 0.00 58 1010.1
20260902003035 68 269 2.0 10.0 0.00 0.00 0.00 58 1010.0
20260902001532 68 280 2.0 10.0 0.00 0.00 0.00 58 1009.9
20260902000035 68 273 3.0 9.0 0.00 0.00 0.00 58 1009.9
20260901234534 68 273 2.0 11.0 0.00 0.00 0.00 58 1010.0
20260901231532 69 302 2.0 19.0 0.00 0.00 0.00 58 1010.1
20260901230036 69 274 2.0 11.0 0.00 0.00 0.00 57 1010.1
20260901224649 69 267 3.0 11.0 0.00 0.00 0.00 59 1010.1
20260901223035 67 279 3.0 16.0 0.00 0.00 0.00 61 1010.0
20260901220033 69 275 3.0 13.0 0.00 0.00 0.00 57 1009.5
20260901214531 69 288 3.0 17.0 0.00 0.00 0.00 57 1009.4
20260901204533 71 288 4.0 19.0 0.00 0.00 0.00 54 1009.9
20260901200032 70 274 3.0 15.0 0.00 0.00 0.00 55 1010.1
20260901194538 71 267 3.0 16.0 0.00 0.00 0.00 54 1010.2
20260901193034 71 269 3.0 12.0 0.00 0.00 0.00 55 1010.5
20260901190035 70 271 3.0 17.0 0.00 0.00 0.00 56 1010.8
20260901183033 69 296 2.0 10.0 0.00 0.00 0.00 58 1011.2
20260901180034 68 271 2.0 11.0 0.00 0.00 0.00 61 1011.3
20260901174536 67 289 2.0 15.0 0.00 0.00 0.00 62 1011.3
20260901171530 64 278 2.0 8.0 0.00 0.00 0.00 69 1011.3
20260901170000 0 0 0.0 0.0 0.00 0.00 0.00 100